www.pogodaiklimat.ru

Погода и климат >> Архив погоды >> Россия >> Якутия >> Покровск


ПОГОДА в Покровске

  • Прогноз погоды в Покровске
  • Монитор погоды в Покровске
  • Климат города

АРХИВ ПОГОДЫ в Покровске

Время (UTC), дата Ветер
(напр.,м/с)
 
Видим.   Явления Облачность Т
(С)
Тd
(С)
f
(%)
Тe
(С)
Тes
(С)
Комфортность P
(гПа)
Po
(гПа)
Тmin
(С)
Tmax
(С)
R
(мм)
R24
(мм)
S
(см)
06 12.08 В 4 20 км 4/4 600 м
[Cu med, cong]
+29.1 +12.0 35 +30 +33 жарко 1009.5 995.9
09 12.08 СЗ 3 20 км 4/4 600 м
[Cu med, cong]
+27.7 +13.8 42 +30 +30 жарко 1010.3 996.7
12 12.08 З 1 20 км ясно +20.8 +16.2 75 +25 +25 комфорт 1011.9 997.8 +29.9
15 12.08 З 3 20 км ясно +16.3 +14.2 87 +16 +16 1012.9 998.6
18 12.08 З 1 20 км ясно +14.1 +12.8 92 +14 +14 1013.9 999.5
21 12.08 ЮЗ 1 10 км 4/0
[As trans]
+13.0 +12.1 94 +13 +14 1015.1 1000.6
00 13.08 Ю 1 10 км дым 3/0
[Ci fib]
+20.5 +14.9 70 +24 +31 комфорт 1015.3 1001.2 +12.5
03 13.08 В 2 10 км дым ясно +25.2 +16.5 59 +29 +39 душно 1015.0 1001.2
06 13.08 СВ 2 10 км дым 3/3 600 м
[Cu med, cong]
+27.7 +17.6 54 +32 +37 очень
душно
1014.0 1000.3
09 13.08 ЮВ 1 10 км дым ясно +28.4 +16.6 49 +32 +34 душно 1013.7 1000.0
12 13.08 С 2 10 км дым ясно +24.0 +17.3 66 +28 +28 душно 1014.0 1000.1 +29.1
15 13.08 З 1 10 км дым ясно +16.3 +14.0 86 +17 +17 1014.8 1000.5
18 13.08 ЮЗ 1 10 км дым ясно +13.7 +12.4 92 +14 +14 1015.0 1000.6
21 13.08 С 1 10 км дым ясно +12.3 +11.4 94 +12 +13 1015.7 1001.2
00 14.08 СВ 3 10 км дым ясно +21.2 +17.5 79 +25 +30 комфорт 1015.4 1001.4 +12.2
03 14.08 СВ 4 10 км дым ясно +27.1 +17.1 54 +31 +38 душно 1014.0 1000.3
06 14.08 СВ 3 10 км дым ясно +29.6 +15.1 41 +32 +38 душно 1012.6 999.0
09 14.08 СВ 3 10 км дым ясно +29.2 +16.2 45 +32 +34 душно 1011.6 998.0
12 14.08 СВ 2 20 км 3/0
[Ci fib]
+24.8 +17.3 63 +29 +29 душно 1011.9 998.0 +30.6
15 14.08 З 1 20 км ясно +15.8 +13.1 84 +16 +16 1012.9 998.6
18 14.08 З 1 20 км ясно +12.9 +11.2 89 +13 +13 1013.3 998.8
21 14.08 20 км 3/0
[Ci fib]
+11.6 +10.2 91 1013.8 999.2
00 15.08 СВ 2 50 км 8/0
[Ci fib]
+22.5 +14.6 61 +26 +31 жарко 1012.9 998.9 +11.1
03 15.08 ЮВ 4 50 км 10/0
[Ci fib]
+31.0 +13.6 35 +32 +38 жарко 1011.7 998.1
06 15.08 В 2 50 км 10/0
[Ci fib]
+32.5 +14.0 33 +34 +40 очень
жарко
1010.4 997.0
09 15.08 В 2 50 км 10/0
[Ci fib]
+30.2 +14.9 39 +32 +33 жарко 1009.8 996.3
12 15.08 В 1 50 км 10/0
[Ac trans Ci fib]
+26.6 +13.8 45 +29 +29 жарко 1010.2 996.5 +34.0
15 15.08 СВ 2 20 км 10/0
[Ac und]
+19.0 +13.8 72 +21 +21 комфорт 1010.5 996.4
18 15.08 СВ 1 20 км 8/0
[Ac trans]
+17.5 +13.4 77 +19 +19 1010.4 996.3
21 15.08 З 1 10 км дым 10/0
[Ac trans Ci fib]
+17.6 +13.7 78 +19 +19 1010.6 996.5
00 16.08 З 3 10 км гроза, ливневой дождь 10/0 600 м
[As op]
+19.8 +18.4 92 +23 +24 комфорт 1012.5 998.4 +16.1 1
03 16.08 З 5 2000 м дым {гроза, ливн. осадки} 10/10 600 м
[Sc]
+22.0 +18.0 78 +19 +19 1013.7 999.7
06 16.08 З 4 2000 м дым {гроза, ливн. осадки} 10/10 600 м
[Sc]
+20.4 +15.5 73 +23 +23 комфорт 1014.9 1000.8
09 16.08 З 4 10 км дым ясно +18.7 +14.0 74 +19 +20 1015.8 1001.6
12 16.08 С 3 20 км дым 9/9 600 м
[Sc]
+17.4 +12.6 73 +17 +17 1016.4 1002.2 +26.6 0.0
15 16.08 20 км н/о +16.7 +12.9 78 +18 +18 1016.4 1002.1
18 16.08 С 1 20 км 8/8 600 м
[Sc]
+14.2 +11.0 81 +15 +15 1016.2 1001.8
21 16.08 З 2 50 км 3/1 600 м
[Sc Ac trans]
+10.6 +9.8 95 +9 +9 1016.7 1002.1
00 17.08 СЗ 2 50 км 8/0
[Ac trans Ci fib]
+14.9 +8.8 67 +15 +18 1015.5 1001.1 +10.0
03 17.08 ЮВ 2 50 км 10/3 1000 м
[Sc Ac As]
+17.3 +10.4 64 +18 +20 1014.2 999.9
06 17.08 СЗ 4 50 км 10/0
[As op]
+16.2 +9.0 62 +16 +16 1013.5 999.2
09 17.08 СЗ 3 10 км слабый дождь 10/0
[As op]
+13.1 +9.4 78 +12 +12 1013.9 999.4
12 17.08 СЗ 3 50 км {дождь} 8/8 600 м
[Sc]
+11.4 +10.8 96 +9 +9 1014.2 999.6 +18.7 4
15 17.08 СЗ 3 20 км 8/8 600 м
[Sc]
+10.4 +9.8 96 +8 +8 1013.8 999.2
18 17.08 ЮЗ 1 20 км 3/3 600 м
[Sc]
+7.8 +6.9 94 +7 +7 1014.4 999.6
21 17.08 З 3 50 км 3/1 600 м
[Sc Ci fib]
+7.0 +6.6 97 +4 +4 1013.5 998.7
00 18.08 З 2 50 км 8/1 600 м
[Cu hum Ci fib]
+12.8 +10.1 84 +12 +16 1012.7 998.2 +5.5
03 18.08 Ю 2 50 км 10/3 600 м
[Cu med, cong Ci fib]
+16.4 +8.6 60 +17 +22 1011.0 996.8
06 18.08 ЮЗ 5 50 км 8/0
[Ac trans Ci fib]
+18.7 +9.4 55 +19 +21 1009.8 995.7
09 18.08 СЗ 3 50 км 10/6 600 м
[Sc Ac und]
+15.4 +9.2 67 +15 +15 1009.9 995.6
12 18.08 СЗ 1 20 км слабый дождь 10/0
[As op]
+12.4 +10.3 87 +12 +12 1009.3 994.9 +19.1 0.6
15 18.08 З 1 20 км слабый дождь 10/0 600 м
[As op]
+11.2 +10.2 94 +11 +11 1009.6 995.1
18 18.08 З 1 10 км дымка {дождь} 8/8 600 м
[Sc]
+11.1 +10.3 95 +11 +11 1009.6 995.1
21 18.08 З 2 50 км 10/6 600 м
[Sc Ac und]
+11.0 +10.4 96 +10 +10 1009.6 995.1
00 19.08 50 км н/о +12.4 +10.9 91 +11 +13 1009.9 995.5 +10.8 8

 

Местоположение метеостанции Покровск (Якутия, Россия): широта 61.48 долгота 129.10 высота над уровнем моря 121 м.

В архиве по умолчанию представлена погода в Покровске за последнюю неделю. Архивные данные за месяц целиком и за предыдущие месяцы, начиная с января 2011 года, Вы можете получить, выбрав интересующий диапазон дат из раскрывающегося списка и нажав кнопку "Ввод!".

Внимание! Время в таблицах - всемирное. Для получения местного времени необходимо прибавить поправку, которая в Покровске равна 9 ч.

Смотрите также архив погоды в соседних городах и на ближайших метеорологических станциях:

Погода в Якутске (Якутия, Россия) (64 км)
Погода в Тегюльте (Якутия, Россия) (122 км)
Погода в Намцах (Якутия, Россия) (140 км)
Погода в Бердигестяхе (Якутия, Россия) (141 км)
Погода в Амге (Якутия, Россия) (163 км)
Погода в Чурапче (Якутия, Россия) (194 км)
Погода в Исите (Якутия, Россия) (217 км)
Погода в Батамае (Якутия, Россия) (227 км)
Погода в Буяге (Якутия, Россия) (232 км)
Погода в Тонгулахе (Якутия, Россия) (247 км)

Пояснения к столбцам:

Ветер - указаны скорость ветра в м/с - средняя за 10 мин, порывы в срок и между сроками (в фигурных скобках) и направление, откуда дует ветер: С - северный, СВ - северо-восточный, В - восточный, ЮВ - юго-восточный, Ю - южный, ЮЗ - юго-западный, З - западный, СЗ - северо-западный.
Видимость - горизонтальная дальность видимости в метрах или километрах. При видимости от 1 до 10 км при отсутствии осадков обычно наблюдается дымка, при ухудшении видимости до 1 км и менее - туман. В сухую погоду видимость может ухудшаться дымом, пылью или мглою.
Явления - указаны атмосферные явления, наблюдавшиеся в срок или в последний час перед сроком; фигурными скобками обозначены явления, наблюдавшиеся между сроками (за 1-3 часа до срока); квадратными скобками обозначены град или гололедные отложения с указанием их диаметра в мм.
Облачность - указаны через наклонную черту общая и нижняя облачность в баллах и высота нижней границы облаков в метрах; квадратными скобками обозначены формы облаков: Ci - перистые, Cs - перисто-слоистые, Cc - перисто-кучевые, Ac - высококучевые, As - высокослоистые, Sc - слоисто-кучевые, Ns - слоисто-дождевые, Cu - кучевые, Cb - кучево-дождевые. Подробнее классификацию облаков см. в Атласе облаков (PDF).
T - Температура воздуха - температура, измеренная на высоте 2 м над землей.
Td - Температура точки росы - температура, при понижении до которой содержащийся в воздухе водяной пар достигнет насыщения.
f - Относительная влажность воздуха - влажноcть воздуха, измеренная на высоте 2 м над землей.
Te - Эффективная температура - температура, которую ощущает одетый по сезону человек в тени. Характеристика душности погоды. При расчете учитывается влияние влажности воздуха и скорости ветра на теплоощущения человека.
Tes - Эффективная температура на солнце - температура, которую ощущает человек, с поправкой на солнечный нагрев. Характеристика знойности погоды. Зависит от высоты солнца над горизонтом, облачности и скорости ветра. Ночью, в пасмурную погоду, а также при ветре 12 м/с и более поправка равна нулю.
P - Атмосферное давление - приведенное к уровню моря атмосферное давление.
Po - Атмосферное давление - измеренное на уровне метеостанции атмосферное давление.
Tmin - Минимальная температура - минимум температуры воздуха на высоте 2 м над землей.
Tmax - Максимальная температура - максимум температуры воздуха на высоте 2 м над землей.
R - Количество осадков - Количество выпавших осадков за период времени, мм. При наведении курсора мыши на число - период времени, за который выпало указанное количество осадков.
R24 - Количество осадков - Количество выпавших осадков за 24 часа, мм.
S - Снежный покров - Высота снежного покрова, см. При наведении курсора мыши на число - состояние снежного покрова и степень покрытия местности в баллах.